www.pogodaiklimat.ru
ПОГОДА в Алтуне
Время
и дата
22:53 27.01
23:53 27.01
00:53 28.01
01:53 28.01
02:53 28.01
03:53 28.01
04:53 28.01
05:53 28.01
06:53 28.01
07:53 28.01
08:53 28.01
09:53 28.01
10:53 28.01
11:53 28.01
12:53 28.01
13:53 28.01
14:53 28.01
15:53 28.01
16:53 28.01
17:53 28.01
18:53 28.01
19:53 28.01
20:53 28.01
21:53 28.01
22:53 28.01
23:53 28.01
00:53 29.01
01:53 29.01
02:53 29.01
03:53 29.01
04:53 29.01
05:53 29.01
06:53 29.01
07:53 29.01
08:53 29.01
09:53 29.01
10:53 29.01
11:53 29.01
12:53 29.01
13:53 29.01
14:53 29.01
15:53 29.01
16:53 29.01
17:53 29.01
18:53 29.01
19:01 29.01
19:13 29.01
19:53 29.01
Ветер
(напр.,м/с)
Видим. Явления Облачность Т
(С)
Тd
(С)
f
(%)
Тe
(С)
Тes
(С)
Комфортность P
(гПа)
Po
(гПа)
Тmin
(С)
Tmax
(С)
R
(мм)
R24
(мм)
S
(см)
ЮЗ 5 16 км 10/10 1650 м 0.0 -7.2 58 -6 -6 1018.7 962.8
ЮЗ 5 16 км 10/8 1800 m
[Ac]
+0.6 -7.2 56 -5 -5 1018.1 962.5
Ю 5 16 км 10/2 1650 m
[Ac]
+1.7 -7.2 52 -3 -3 1017.7 962.1 -2.8 +1.7
ЮЗ 6 16 км 10/0 2100 m
[Ac]
+2.2 -5.0 59 -3 -3 1017.6 962.1
ЮЗ 8
{11}
16 км 10/10 1950 м +4.4 -4.4 53 -1 -1 1018.1 962.8
ЮЗ 8 16 км 10/10 1500 м +4.4 -3.9 55 -1 -1 1018.9 963.4
ЮЗ 9
{14}
16 км 10/10 1470 м +4.4 -3.3 57 -1 -1 1019.3 963.7
ЮЗ 6
{11}
16 км 10/10 1350 м +5.6 -3.3 53 +1 +1 1020.2 964.7
ЮЗ 6 16 км 10/10 1350 м +5.0 -2.8 57 0 0 1021.4 965.7 +1.7 +5.6
З 8 16 км 5/5 1470 м +5.0 -2.8 57 0 0 1021.9 966.3
З 13
{16}
16 км ясно +5.6 -2.8 55 -1 -1 1022.2 966.6
З 7
{11}
16 км 2/2 1260 м +5.6 -2.8 55 +1 +1 1024.1 968.2
ЮЗ 4
{9}
16 км ясно +6.1 -2.8 53 +3 +5 1024.1 968.5
ЮЗ 6 16 км 2/2 1500 м +6.7 -2.8 51 +3 +4 1024.2 968.5
З 4 16 км 5/5 1800 м +7.2 -2.8 49 +4 +6 1024.1 968.5 +5.0 +7.2
З 3 16 км ясно +7.8 -2.2 49 +6 +10 1023.4 967.9
ЮЗ 4 16 км 2/2 1650 м +7.8 -2.2 49 +5 +7 1023.5 968.2
ЮЗ 4 16 км ясно +7.8 -2.2 49 +5 +7 1024.1 968.5
ЮЗ 4 16 км ясно +6.1 -1.7 57 +3 +3 1024.5 969.2
Ю 3 16 км ясно +4.4 -2.2 62 +1 +1 1024.7 969.2
Ю 3 16 км ясно +5.6 -2.8 55 +3 +3 1024.9 969.5 +4.4 +8.3
штиль 0 16 км ясно +4.4 -2.2 62 +4 +4 1025.3 969.8
ЮЗ 3 16 км ясно +3.3 -2.2 67 0 0 1025.6 969.8
штиль 0 16 км ясно +3.9 -2.8 62 +3 +3 1025.3 969.8
штиль 0 16 км ясно +3.9 -3.3 59 +3 +3 1024.7 969.2
штиль 0 16 км ясно +1.7 -3.3 69 +1 +1 1024.2 968.5
штиль 0 16 км ясно +2.8 -3.3 64 +2 +2 1023.6 968.2 +1.1 +5.6
штиль 0 16 км ясно +1.1 -3.3 72 0 0 1023.4 967.9
штиль 0 16 км 8/0 2700 m
[Ac]
+2.2 -2.8 69 +1 +1 1023.2 967.6
штиль 0 16 км 10/0 2700 m
[Ac]
+2.2 -2.8 69 +1 +1 1022.6 967.3
штиль 0 16 км 8/0 2550 m
[Ac]
+1.1 -2.8 75 0 0 1022.6 967.3
Ю 2 16 км 10/0 2100 m
[Ac]
+1.7 -2.8 72 -1 -1 1022.0 966.3
З 2 16 км 10/0 2100 m
[Ac]
+1.7 -2.2 75 -1 -1 1022.0 966.6 +0.6 +4.4
СЗ 2 16 км слабый дождь 10/8 1500 m
[Ac Ns]
+2.8 -1.7 72 0 0 1021.2 965.7
ЮВ 2 16 км 10/0 2400 m
[Ac]
+2.8 -1.7 72 0 0 1021.1 965.7
штиль 0 16 км 10/0 2250 m
[Ac]
+3.9 -1.1 70 +3 +4 1021.6 966.3
Ю 3 16 км слабый дождь 10/10 1650 m
[Ns]
+3.9 -1.1 70 0 0 1021.3 966.0
штиль 0 16 км слабый дождь 10/10 1200 m
[Ns]
+3.9 0.0 76 +3 +3 1020.3 964.7
штиль 0 16 км 10/10 840 м +5.0 0.0 70 +4 +4 1019.5 964.1 +1.7 +5.0 0.3
ЮЗ 4 16 км 10/10 690 м +5.6 +1.1 73 +2 +2 1018.9 963.4
ЮЗ 6 16 км 10/10 660 м +6.7 +2.8 76 +2 +2 1018.9 963.7
З 5 16 км 10/10 660 м +6.1 +2.8 79 +2 +2 1019.4 964.1
З 4 16 км 10/10 600 м +6.1 +2.8 79 +2 +2 1020.1 964.7
ЮЗ 5 16 км 10/10 540 м +6.1 +2.8 79 +2 +2 1020.4 965.0
ЮЗ 4 16 км 10/10 450 м +5.6 +2.8 82 +2 +2 1021.2 965.7 +3.9 +6.7
ЮЗ 4 16 км 10/10 420 м +5.6 +2.8 82 +2 +2 965.7
ЮЗ 5 16 км 10/10 450 м +5.6 +2.8 82 +1 +1 966.0
ЮЗ 4 16 км 10/10 450 м +6.1 +3.3 82 +2 +2 1021.4 966.0
Местоположение метеостанции Altoona-Blair County Airport: широта 40.3000 долгота -78.3169 высота над уровнем моря 458 м.
В архиве по умолчанию представлена погода в Алтуне за последние 1-2 суток. Обновление информации о фактической погоде в базе происходит ежечасно! Архивные данные за месяц целиком и за предыдущие месяцы Вы можете получить, выбрав интересующий диапазон дат из раскрывающегося списка и нажав кнопку "Ввод!".
Внимание! Архив погоды МЕТАР в базе сайта по станциям, не включенным в климатический монитор, хранится не более 60 дней. Нет смысла пытаться выбрать более раннюю дату.
*Определитесь, кто Вы:
Внимание! Время в таблицах - местное (без учета летнего времени). Для получения всемирного времени необходимо вычесть поправку, которая равна -5 ч.
Смотрите также архив погоды в соседних городах и на ближайших метеорологических станциях:
Партнеры нашего сайта:      
Пояснения к столбцам:
  • Ветер - указаны скорость ветра в м/с - средняя за 10 мин, порывы в срок и между сроками (в фигурных скобках) и направление, откуда дует ветер: С - северный,
  • СВ - северо-восточный, В - восточный, ЮВ - юго-восточный, Ю - южный, ЮЗ - юго-западный, З - западный, СЗ - северо-западный.
  • Видимость - горизонтальная дальность видимости в метрах или километрах. При видимости от 1 до 10 км при отсутствии осадков обычно наблюдается дымка, при ухудшении видимости до 1 км и менее - туман. В сухую погоду видимость может ухудшаться дымом, пылью или мглою.
  • Явления - указаны атмосферные явления, наблюдавшиеся в срок или в последний час перед сроком; фигурными скобками обозначены явления, наблюдавшиеся между сроками (за 1-3 часа до срока); квадратными скобками обозначены град или гололедные отложения с указанием их диаметра в мм.
  • Облачность - указаны через наклонную черту общая и нижняя облачность в баллах и высота нижней границы облаков в метрах; квадратными скобками обозначены формы облаков: Ci - перистые, Cs - перисто-слоистые, Cc - перисто-кучевые, Ac - высококучевые, As - высокослоистые, Sc - слоисто-кучевые, Ns - слоисто-дождевые, Cu - кучевые, Cb - кучево-дождевые. Подробнее классификацию облаков см. в Атласе облаков (PDF).
  • T - Температура воздуха - температура, измеренная на высоте 2 м над землей.
  • Td - Температура точки росы - температура, при понижении до которой содержащийся в воздухе водяной пар достигнет насыщения.
  • f - Относительная влажность воздуха - влажноcть воздуха, измеренная на высоте 2 м над землей.
  • Te - Эффективная температура - температура, которую ощущает одетый по сезону человек в тени. Характеристика душности погоды. При расчете учитывается влияние влажности воздуха и скорости ветра на теплоощущения человека.
  • Tes - Эффективная температура на солнце - температура, которую ощущает человек, с поправкой на солнечный нагрев. Характеристика знойности погоды. Зависит от высоты солнца над горизонтом, облачности и скорости ветра. Ночью, в пасмурную погоду, а также при ветре 12 м/с и более поправка равна нулю.
  • P - Атмосферное давление - приведенное к уровню моря атмосферное давление.
  • Po - Атмосферное давление - измеренное на уровне метеостанции атмосферное давление.
  • Tmin - Минимальная температура - минимум температуры воздуха на высоте 2 м над землей.
  • Tmax - Максимальная температура - максимум температуры воздуха на высоте 2 м над землей.
  • R - Количество осадков - Количество выпавших осадков за период времени, мм. При наведении курсора мыши на число - период времени, за который выпало указанное количество осадков.
  • R24 - Количество осадков - Количество выпавших осадков за 24 часа, мм.
  • S - Снежный покров - Высота снежного покрова, см. При наведении курсора мыши на число - состояние снежного покрова и степень покрытия местности в баллах.